Regional Weather Roundup
Issued by NWS

Home | Current Version | Previous Version | Graphics & Text | Print | Product List | Glossary On
Versions: 1 2 3 4 5 6 7 8 9 10 11 12 13 14 15 16 17 18 19 20 21 22 23 24 25 26 27 28 29 30 31 32 33 34 35 36 37 38 39 40 41 42 43 44 45 46 47 48 49 50
000
ASUS45 KABQ 310610
RWRNM
NEW MEXICO REGIONAL WEATHER ROUNDUP
NATIONAL WEATHER SERVICE ALBUQUERQUE NM
1200 AM MDT FRI JUL 31 2015

NOTE: "FAIR" MEANS FEW OR NO CLOUDS BELOW 12,000 FEET AGL WITH NO
       SIGNIFICANT WEATHER OR OBSTRUCTIONS TO VISION.

      THIS PRODUCT IS RELEASED AS TWO VERSIONS.  ONE VERSION NEAR
      THE TOP OF THE HOUR CONTAINING PRELIMINARY DATA FROM ALBUQUERQUE
      AND OTHER STATIONS.  A FINAL VERSION WITH ADDITIONAL DATA IS
      ISSUED ABOUT 10 MINUTES AFTER THE HOUR.

NMZ501-503-504-510>518-310700-
NORTHWEST PLATEAU/NORTHCENTRAL MOUNTAINS

CITY           SKY/WX    TMP DP  RH WIND       PRES   REMARKS
FARMINGTON     LGT RAIN  64  58  80 W3        30.38R
6HR MIN TEMP:  64; 6HR MAX TEMP:  69; 6HR PCP:  0.17;

LOS ALAMOS     CLOUDY    62  57  83 SW8       30.51R
SANTA FE       CLOUDY    65  56  72 S5        30.43S
6HR MIN TEMP:  65; 6HR MAX TEMP:  73;

TAOS           CLOUDY    61  48  63 S5        30.49S
ANGEL FIRE     LGT RAIN  52  51  96 CALM      30.59F

$$
NMZ402-403-502-505>509-310700-
WESTCENTRAL MOUNTAINS/SOUTHWEST MOUNTAINS

CITY           SKY/WX    TMP DP  RH WIND       PRES   REMARKS
GALLUP         CLOUDY    62  55  77 E7        30.43S
6HR MIN TEMP:  62; 6HR MAX TEMP:  68; 6HR PCP: TRACE;

GRANTS         CLOUDY    64  61  90 CALM      30.45R
SILVER CITY      N/A     68  64  88 NW6       30.35R

$$
NMZ407-409-411-412-310700-
SOUTHERN DESERTS

CITY           SKY/WX    TMP DP  RH WIND       PRES   REMARKS
LORDSBURG      FAIR      75  64  69 S7        30.23S
DEMING         MOCLDY    75  65  70 NE3       30.24S
6HR MIN TEMP:  75; 6HR MAX TEMP:  88;

LAS CRUCES     CLOUDY    75  67  75 NW6       30.24F
HOLLOMAN AFB   CLOUDY    79  59  50 N5        30.21S
ALAMOGORDO     MOCLDY    75  59  57 SE10      30.25R
T OR C         CLOUDY    72  59  63 W6        30.29S
6HR MIN TEMP:  72; 6HR MAX TEMP:  84;


$$
NMZ519>523-310700-
CENTRAL VALLEYS/CENTRAL HIGHLANDS

CITY           SKY/WX    TMP DP  RH WIND       PRES   REMARKS
ALBUQUERQUE    CLOUDY    73  57  57 E7        30.36R
6HR MIN TEMP:  72; 6HR MAX TEMP:  80; 6HR PCP: TRACE;

DOUBLE EAGLE   CLOUDY    67  64  90 CALM      30.40R
MORIARTY ARPT    N/A     62  58  88 CALM      30.45S
6HR MIN TEMP:  62; 6HR MAX TEMP:  63; 6HR PCP:  0.01;

CLINES CORNERS NOT AVBL
BELEN          CLOUDY    69  61  76 S3        30.35R
6HR MIN TEMP:  68; 6HR MAX TEMP:  72;

SOCORRO        CLOUDY    71  59  65 CALM      30.31F
6HR MIN TEMP:  71; 6HR MAX TEMP:  80;


$$
NMZ524>526-539-540-310700-
SOUTHCENTRAL MOUNTAINS

CITY           SKY/WX    TMP DP  RH WIND       PRES   REMARKS
RUIDOSO          N/A    N/A N/A N/A MISG        N/A

$$
NMZ527>531-310700-
NORTHEAST HIGHLANDS/NORTHEAST PLAINS

CITY           SKY/WX    TMP DP  RH WIND       PRES   REMARKS
LAS VEGAS      CLOUDY    59  57  93 NE5       30.49S
6HR MIN TEMP:  59; 6HR MAX TEMP:  67; 6HR PCP:  0.01;

RATON          CLOUDY    62  59  90 W5        30.43S
6HR MIN TEMP:  62; 6HR MAX TEMP:  75;

CLAYTON        RAIN      68  64  87 SW7       30.36R
6HR MIN TEMP:  66; 6HR MAX TEMP:  78; 6HR PCP:  0.02;


$$
NMZ532>537-310700-
EASTCENTRAL PLAINS

CITY           SKY/WX    TMP DP  RH WIND       PRES   REMARKS
TUCUMCARI      CLOUDY    71  67  87 N5        30.28F
6HR MIN TEMP:  70; 6HR MAX TEMP:  84;

CANNON AFB     CLOUDY    72  65  80 E9        30.29F
6HR MIN TEMP:  70; 6HR MAX TEMP:  76; 6HR PCP:  0.07;

CLOVIS AIRPORT MOCLDY    72  64  78 E6        30.30S

$$
NMZ028-029-538-310700-
SOUTHEAST PLAINS

CITY           SKY/WX    TMP DP  RH WIND       PRES   REMARKS
ROSWELL        CLOUDY    75  63  66 N9        30.25S
6HR MIN TEMP:  75; 6HR MAX TEMP:  93;

ARTESIA        CLOUDY    75  68  78 NW9       30.25R
CARLSBAD       CLOUDY    86  57  37 N6        30.17R
6HR MIN TEMP:  83; 6HR MAX TEMP:  97;

HOBBS          PTCLDY    77  63  61 E10       30.23S


$$


USA.gov is the U.S. government's official web portal to all federal, state and local government web resources and services.